Content
SEND FEEDBACK

Daily
Averages
Monthly
Summary
United States of America

EL PASO, TEXAS


Home > North America > United States > Texas
Elevation: 3918 feet     Latitude: 31 48N     Longitude: 106 24W

WEATHER
 
SELECT A DAY
Number of Records: 172,064;   Date Range: 1/1/95 - 8/12/14
 
SHARE

PRINT THIS DATA

[ ← Previous Day ]
WEATHER ALMANAC - MAY 12, 2013
[ Next Day → ]
[ °C ]   °F
Weather ElementAverageHighLow
Temperature67.9 °F79 °F (4:51 pm)54 °F (5:51 am)
Dewpoint33.1 °F39.9 °F (1:51 am)27 °F (6:51 pm)
Humidity30.4 %53 % (3:51 am)15 % (4:51 pm)
Barometer30.08 in30.17 in (7:51 am)29.98 in (6:51 pm)
Wind Speed8.6 mph15 mph (4:51 pm)
Wind Gust21.9 mph (1:51 pm)
Weather ElementAverage
Visibility10 mi
Wind DirectionSE (133.5 °)

Weather ElementTotal
Precipitation---
Cooling Degree Days1.5 (Base 65)
Growing Degree Days16.5 (Base 50)
Averaged from 23 records on May 12, 2013
WEATHER CONDITIONS BREAKOUT
WIND DIRECTION BREAKOUT
WEATHER BY HOUR - MAY 12, 2013
[ °C ]   °F
Local TimeTemperatureDewpointHumidityBarometerVisibilityWind DirectionWind SpeedGust SpeedPrecipitationEventsConditions
1:51 AM59.0 °F39.9 °F49 %30.13 in10.0 miCalmPartly Cloudy
2:51 AM59.0 °F37.9 °F46 %30.11 in10.0 miNorth (350°)5.8 mphPartly Cloudy
3:51 AM57.0 °F39.9 °F53 %30.12 in10.0 miENE (60°)3.5 mphPartly Cloudy
4:51 AM55.9 °F37.0 °F49 %30.12 in10.0 miNorth (10°)8.1 mphPartly Cloudy
5:51 AM54.0 °F37.0 °F53 %30.13 in10.0 miNorth (360°)8.1 mphPartly Cloudy
6:51 AM55.9 °F37.0 °F49 %30.15 in10.0 miNorth (360°)10.4 mphPartly Cloudy
7:51 AM60.1 °F37.0 °F42 %30.17 in10.0 miNorth (360°)8.1 mphClear
8:51 AM63.0 °F37.0 °F38 %30.17 in10.0 miNNE (20°)6.9 mphClear
9:51 AM66.9 °F37.9 °F34 %30.15 in10.0 miSE (140°)6.9 mphPartly Cloudy
10:51 AM70.0 °F36.0 °F29 %30.14 in10.0 miESE (120°)10.4 mph16.1 mphPartly Cloudy
11:51 AM72.0 °F34.0 °F25 %30.12 in10.0 miENE (60°)8.1 mphScattered Clouds
12:51 PM73.0 °F33.1 °F23 %30.09 in10.0 miVariable3.5 mph16.1 mphMostly Cloudy
1:51 PM75.9 °F30.0 °F19 %30.07 in10.0 miEast (100°)10.4 mph21.9 mphMostly Cloudy
2:51 PM77.0 °F30.9 °F19 %30.04 in10.0 miESE (120°)12.7 mph20.7 mphMostly Cloudy
3:51 PM77.0 °F30.0 °F18 %30.02 in10.0 miESE (120°)10.4 mphMostly Cloudy
4:51 PM79.0 °F28.0 °F15 %29.99 in10.0 miEast (80°)15.0 mph20.7 mphMostly Cloudy
5:51 PM77.0 °F28.9 °F17 %29.99 in10.0 miESE (120°)13.8 mphScattered Clouds
6:51 PM75.9 °F27.0 °F16 %29.98 in10.0 miESE (110°)9.2 mphScattered Clouds
7:51 PM73.9 °F27.0 °F18 %29.99 in10.0 miEast (100°)8.1 mphPartly Cloudy
8:51 PM73.0 °F28.0 °F19 %30.00 in10.0 miESE (120°)8.1 mphClear
9:51 PM71.1 °F28.9 °F21 %30.02 in10.0 miESE (110°)10.4 mphClear
10:51 PM69.1 °F30.0 °F23 %30.03 in10.0 miESE (110°)10.4 mphClear
11:51 PM66.9 °F30.0 °F25 %30.04 in10.0 miSE (140°)10.4 mphClear
Hourly data recorded from KELP, located miles away from El Paso, Texas







STORIES FROM OUR PARTNERS